Flag for Canada Weather past 2 weeks in Bathurst, New Brunswick, Canada

Now
66 °F

Low clouds.


Feels Like: 66 °F
Forecast: 63 / 74 °F
Wind: 2 mph from North

Location: Bathurst Airport

Current Time: Aug 4, 2015 at 7:43:48 AM

Latest Report: Aug 4, 2015 at 7:00 AM


Visibility: 10 mi

Pressure: 29.80 "Hg

Humidity: 88%

Dew point: 63 °F

Location of BathurstLocation

Historic Weather in Bathurst — Graph

°F

Bathurst temperature yesterday

Maximum temperature yesterday: 86 °F (at 3:00 PM)
Minimum temperature yesterday: 54 °F (at 6:00 AM)
Average temperature yesterday: 71 °F

Past Weeks' High & Low Weather Summary

 TemperatureHumidityPressure
High86 °F (Aug 3, 3:00 PM)100% (Jul 20, 11:00 AM)30.13 "Hg (Jul 20, 11:00 AM)
Low45 °F (Jul 25, 5:00 AM)37% (Aug 2, 4:00 PM)29.53 "Hg (Jul 31, 4:00 PM)
Average64 °F83%29.80 "Hg
* Reported Jul 20 6:00 AM — Aug 4 6:00 AM, Bathurst, Weather by CustomWeather, © 2015

Note: Actual official high and low records may vary slightly from our data, if they occured in-between our weather recording intervals... More about our weather records

Advertising

Bathurst weather history for previous 24 hours

 ConditionsComfort  
Time TempWeatherWind HumidityBarometerVisibility
6:00 AM
Tue, Aug 4
63 °FPassing clouds.3 mph94%29.78 "Hg10 mi
5:00 AM61 °FPassing clouds.5 mph94%29.78 "Hg10 mi
4:00 AM59 °FPartly cloudy.2 mph94%29.78 "Hg10 mi
3:00 AM57 °FPassing clouds.3 mph100%29.79 "Hg12 mi
2:00 AM61 °FPassing clouds.No wind88%29.78 "Hg15 mi
1:00 AM64 °FPassing clouds.No wind83%29.79 "Hg15 mi
12:00 AM66 °FPassing clouds.2 mph78%29.80 "Hg15 mi
11:00 PM
Mon, Aug 3
70 °FPassing clouds.5 mph69%29.80 "Hg15 mi
10:00 PM68 °FPassing clouds.2 mph73%29.77 "Hg15 mi
9:00 PM72 °FBroken clouds.3 mph61%29.76 "Hg15 mi
8:00 PM77 °FPartly sunny.17 mph47%29.76 "Hg15 mi
7:00 PM84 °FBroken clouds.14 mph45%29.71 "Hg15 mi
6:00 PM86 °FOvercast.12 mph40%29.68 "Hg15 mi
5:00 PM86 °FOvercast.18 mph38%29.68 "Hg15 mi
4:00 PM86 °FOvercast.13 mph43%29.70 "Hg15 mi
3:00 PM86 °FOvercast.13 mph43%29.72 "Hg15 mi
2:00 PM84 °FOvercast.16 mph43%29.73 "Hg15 mi
1:00 PM82 °FOvercast.12 mph51%29.75 "Hg15 mi
12:00 PM79 °FOvercast.13 mph54%29.77 "Hg15 mi
11:00 AM77 °FOvercast.6 mph57%29.79 "Hg15 mi
10:00 AM73 °FOvercast.8 mph65%29.81 "Hg15 mi
9:00 AM68 °FMostly cloudy.6 mph73%29.81 "Hg15 mi
8:00 AM61 °FBroken clouds.5 mph83%29.82 "Hg15 mi
7:00 AM57 °FPassing clouds.3 mph88%29.80 "Hg15 mi
Weather by CustomWeather, © 2015

See weather overviewHow to use our weather pages